Welcome to the New NWS' Forecast!
Most changes are behind the scenes, but click here for differences you might notice.
Latest weather observations around

Houlton, Houlton International Airport (KHUL)

Using English Units (Switch to International System of Units)
Date/ Time (EDT) Wind (mph) Vis. (mi) Weather Sky Cond. Temp (°F) Rel. Humidity Wind Chill (°F) Heat Index (°F) Pressure Precip. (in)
Air Dwpt 6 hour Altimeter (inHg) Sea level (inHg) 1 hr 3 hr 6 hr
Max Min
Aug 17 22:01 S 6 3 Light Rain and Fog/Mist BKN055 BKN080 OVC100 64 64     100%     29.94   0    
Aug 17 18:53 Calm 10 Clear CLR 67 63     87%     29.94 29.94      
Aug 17 15:53 SSW 9 10 Mostly Clear FEW043 74 59     60%   74 29.98 29.98      
Aug 17 14:53 6 10 Mostly Cloudy BKN042 74 58     57%   74 30 30.01      
Aug 17 13:53 SSW 9 10 Partly Cloudy SCT041 73 58     59%   73 30.03 30.03      
Aug 17 12:53 SW 8 10 Mostly Cloudy BKN042 72 58     61%   72 30.04 30.04      
Aug 17 11:53 7 10 Partly Cloudy SCT038 71 57     61%   71 30.06 30.06      
Aug 17 10:53 5 10 Mostly Clear FEW026 68 59     73%     30.08 30.08      
Aug 17 09:53 5 10 Clear CLR 65 59     81%     30.1 30.1      
Aug 17 08:53 Calm 10 Clear CLR 62 58     86%     30.12 30.12      
Aug 17 07:53 Calm 10 Clear CLR 55 54     96%     30.12 30.13      
Aug 17 06:53 Calm 10 Clear CLR 50 49     96%     30.12 30.12      
Aug 17 05:53 Calm 9 Clear CLR 44 44     100%     30.1 30.1      
Aug 17 04:53 Calm 10 Mostly Clear FEW001 45 45     100%     30.09 30.09      
Aug 17 04:04 Calm 9 Mostly Clear FEW002 45 45     100%     30.09        
Aug 17 03:53 Calm 10 Clear CLR 47 47     100%     30.09 30.09      
Aug 17 02:53 Calm 10 Clear CLR 48 48     100%     30.09 30.09      
Aug 17 01:53 Calm 10 Clear CLR 49 49     100%     30.09 30.09      
Aug 17 00:53 Calm 10 Clear CLR 49 49     100%     30.08 30.08      
Aug 16 23:53 Calm 10 Clear CLR 52 52     100%     30.08 30.08      
Aug 16 22:53 Calm 9 Clear CLR 52 52     100%     30.06 30.06      
Aug 16 21:53 Calm 10 Clear CLR 55 55     100%     30.05 30.06      
Aug 16 20:53 Calm 10 Clear CLR 56 56     100%     30.05 30.05      
Aug 16 19:53 Calm 10 Clear CLR 62 57     84%     30.03 30.03      
Aug 16 18:53 NNW 5 10 Clear CLR 67 57     71%     30 30.01      
Aug 16 17:53 N 9 10 Clear CLR 69 57     65%     29.99 29.99      
Aug 16 16:53 N 10 10 Mostly Cloudy SCT038 BKN080 73 58     59%   73 29.98 29.98      
Aug 16 15:53 NNW 9 10 Cloudy BKN047 BKN060 OVC070 71 57     61%   71 29.97 29.96      
Aug 16 14:53 NNE 8 10 Mostly Cloudy FEW039 BKN070 75 59     57%   75 29.95 29.95      
Aug 16 13:53 NNW 14 10 Mostly Clear FEW065 72 57     59%   72 29.95 29.95      
Aug 16 12:53 NNW 14 10 Mostly Cloudy BKN060 70 59     68%     29.94 29.94      
Aug 16 11:53 NNW 10 10 Partly Cloudy FEW033 SCT049 69 57     65%     29.93 29.93      
Aug 16 10:53 NW 10 10 Partly Cloudy FEW027 SCT036 69 58     68%     29.93 29.93      
Aug 16 09:53 NW 8 10 Clear CLR 67 58     73%     29.92 29.92      
Aug 16 08:53 NNW 6 10 Clear CLR 64 58     81%     29.92 29.92      
Aug 16 07:53 Calm 10 Mostly Cloudy BKN050 61 58     90%     29.92 29.92      
Aug 16 06:53 Calm 10 Clear CLR 59 57     93%     29.9 29.9      
Aug 16 06:20 Calm 6 Fog/Mist FEW002 55 55     100%     29.89        
Aug 16 06:13 Calm 2 Fog/Mist FEW002 54 54     100%     29.89        
Aug 16 06:08 Calm 0.25 Fog VV002 53 53     100%     29.89        
Aug 16 05:53 Calm 0.75 Fog/Mist CLR 53 53     100%     29.88 29.88      
Aug 16 05:41 Calm 2 Fog/Mist CLR 54 54     100%     29.88        
Aug 16 05:35 Calm 1 Fog/Mist CLR 55 55     100%     29.88        
Aug 16 05:27 Calm 0.5 Fog VV002 54 54     100%     29.88        
Aug 16 05:20 Calm 0.75 Fog/Mist CLR 54 54     100%     29.88        
Aug 16 05:17 Calm 1.75 Fog/Mist CLR 55 55     100%     29.88        
Aug 16 04:53 Calm 6 Fog/Mist CLR 56 56     100%     29.87 29.87      
Aug 16 03:53 Calm 9 Clear CLR 57 57     100%     29.86 29.86      
Aug 16 02:53 Calm 9 Clear CLR 60 60     100%     29.85 29.85      
Aug 16 01:53 N 6 10 Mostly Cloudy BKN070 62 61     96%     29.84 29.84      
Aug 16 01:03 Calm 8 Partly Cloudy SCT017 64 64     100%     29.84        
Aug 16 00:53 Calm 6 Fog/Mist SCT010 OVC017 64 64     100%     29.84 29.84      
Aug 16 00:14 Calm 6 Fog/Mist OVC014 64 64     100%     29.84        
Aug 15 23:53 Calm 5 Fog/Mist FEW006 BKN017 BKN085 64 64     100%     29.84 29.83      
Aug 15 23:51 Calm 5 Fog/Mist SCT006 BKN017 BKN085 64 64     100%     29.84        
Aug 15 23:37 Calm 7 Mostly Cloudy BKN005 BKN080 BKN110 65 65     100%     29.84        
Aug 15 23:22 N 6 8 Mostly Cloudy SCT005 BKN110 64 64     100%     29.84        
Aug 15 22:53 SSW 6 8 Mostly Clear FEW100 64 64     100%     29.83 29.83      
Aug 15 21:53 Calm 10 Clear CLR 64 64     100%     29.82 29.82      
Aug 15 20:53 3 8 Clear CLR 64 64     100%     29.81 29.8      
Aug 15 19:53 SSW 5 6 Fog/Mist CLR 64 64     100%     29.8 29.79 0   0
Aug 15 18:53 Calm 9 Light Rain FEW070 BKN100 OVC110 65 64     97%     29.78 29.78 0    
Aug 15 18:00 Calm 4 Light Rain and Fog/Mist BKN110 64 64     100%     29.78   0    
Aug 15 17:53 ESE 3 4 Thunderstorms and Rain and Fog/Mist OVC110 65 64     97%     29.78 29.78 0    
Aug 15 17:51 ESE 5 4 Thunderstorms and Rain and Fog/Mist OVC110 64 64     100%     29.78   0    
Aug 15 17:37 Calm 2 Thunderstorms and Rain and Fog/Mist BKN095 OVC110 65 64     97%     29.81   0    
Aug 15 17:20 Calm 3 Thunderstorms and Rain and Fog/Mist FEW047 BKN090 OVC110 65 64     97%     29.81   0    
Aug 15 17:11 Calm 2.5 Thunderstorms and Rain and Fog/Mist FEW023 BKN075 OVC095 65 64     97%     29.82   0    
Aug 15 16:53   10 Thunderstorms FEW033 SCT050 BKN075 72 69     91%   73 29.79 29.78   0  
Aug 15 16:40 E 5 10 Partly Cloudy SCT075 75 71     88%   76 29.77        
Aug 15 15:53 3 10 Clear CLR 77 71     82%   78 29.76 29.75      
Aug 15 15:02 3 10 Partly Cloudy SCT095 SCT120 70 69     97%     29.75        
Aug 15 14:53 Calm 10 Mostly Cloudy FEW029 SCT070 BKN090 68 68     100%     29.75 29.75 0    
Aug 15 14:50 Calm 10 Light Rain FEW034 SCT070 BKN095 68 66     94%     29.75   0    
Aug 15 14:41   3 Thunderstorms and Rain and Fog/Mist SCT029 BKN070 OVC095 68 67     96%     29.75   0    
Aug 15 14:32 ESE 6 0.5 Thunderstorms and Heavy Rain and Fog BKN029 BKN047 OVC070 69 65     87%     29.75   0    
Aug 15 14:24 Calm 1.25 Thunderstorms and Rain OVC028 71 63     76%   71 29.77   0    
Aug 15 14:00 NNE 10 10 Thunderstorms BKN029 BKN037 OVC100 72 64     76%   72 29.77        
Aug 15 13:53   10 Mostly Cloudy SCT029 BKN060 BKN100 74 66     76%   75 29.78 29.77      
Aug 15 12:53 SW 8 10 Partly Cloudy FEW027 SCT085 80 70     71%   83 29.75 29.74      
Aug 15 12:45 SW 10 10 Mostly Cloudy FEW026 BKN080 BKN110 80 70     71%   83 29.75        
Aug 15 12:23 6 10 Mostly Cloudy SCT026 BKN075 BKN100 79 70     74%   82 29.77        
Aug 15 12:14 SSW 8 10 Mostly Cloudy BKN026 BKN075 BKN100 79 70     74%   82 29.77        
Aug 15 11:53 SW 10 10 Mostly Cloudy SCT024 BKN095 79 70     74%   82 29.77 29.76      
Aug 15 11:32 SW 8 10 Mostly Cloudy FEW020 SCT027 BKN070 76 69     79%   77 29.78        
Aug 15 10:53 SW 10 10 Mostly Cloudy SCT018 BKN027 75 69     82%   76 29.79 29.78      
Aug 15 09:53 SW 10 10 Cloudy OVC015 73 69     87%   74 29.79 29.78      
Aug 15 09:48 SSW 8 10 Cloudy OVC013 73 70     89%   75 29.79        
Aug 15 09:40 SSW 7 10 Cloudy OVC015 73 70     90%   74 29.79        
Aug 15 08:53 SSW 7 10 Cloudy OVC012 72 69     91%   73 29.79 29.78      
Aug 15 07:53 SW 9 10 Cloudy OVC010 71 68     90%   72 29.79 29.78      
Aug 15 06:53 SSW 8 10 Cloudy BKN011 OVC045 70 68     93%     29.79 29.78      
Aug 15 05:53 SW 6 10 Cloudy OVC011 69 68     96%     29.79 29.79      
Aug 15 05:10 SSW 5 10 Cloudy BKN013 OVC050 69 68     96%     29.78        
Aug 15 05:03 SW 7 10 Cloudy BKN015 OVC050 69 68     96%     29.78        
Aug 15 04:53 SSW 7 10 Mostly Cloudy SCT014 BKN050 69 68     96%     29.78 29.77      
Aug 15 03:53 SSW 9 10 Cloudy OVC010 69 68     96%     29.79 29.78      
Aug 15 02:53 SW 7 10 Cloudy BKN010 OVC013 70 68     93%     29.79 29.79      
Aug 15 02:27 6 10 Cloudy BKN010 OVC015 70 69     97%     29.8        
Aug 15 02:05 SSW 7 10 Cloudy OVC015 70 69     97%     29.8        
Aug 15 01:53 S 9 10 Cloudy OVC014 70 69     97%     29.8 29.79      
Aug 15 01:01 S 8 10 Mostly Cloudy BKN013 70 69     97%     29.82        
Aug 15 00:53 S 7 10 Partly Cloudy SCT014 70 69     97%     29.82 29.81      
Aug 15 00:03 SSW 8 10 Mostly Cloudy SCT010 BKN036 71 70     96%   72 29.82        
Aug 14 23:53 SSW 9 10 Cloudy BKN010 BKN018 OVC035 71 70     96%   72 29.83 29.82      
Aug 14 23:51 SSW 9 10 Cloudy BKN010 BKN018 OVC035 72 70     94%   73 29.83        
Aug 14 23:40 SW 8 10 Mostly Cloudy SCT010 BKN018 BKN035 71 70     96%   72 29.83        
Aug 14 23:28 SSW 7 10 Mostly Cloudy BKN010 BKN037 71 70     96%   72 29.82        
Aug 14 22:53 SSW 6 10 Partly Cloudy FEW014 SCT020 SCT025 72 71     97%   73 29.82 29.81      
Aug 14 21:53 S 3 10 Mostly Cloudy SCT019 SCT040 BKN100 72 70     93%   73 29.82 29.82      
Aug 14 21:48 S 3 10 Mostly Cloudy FEW019 SCT025 BKN038 72 70     94%   73 29.82        
Aug 14 21:31 SSW 3 10 Cloudy SCT021 BKN026 OVC095 72 70     93%   73 29.82        
Aug 14 20:53 S 5 10 Cloudy BKN045 BKN055 OVC090 73 70     90%   74 29.83 29.82      
Aug 14 19:53 Calm 10 Partly Cloudy SCT060 73 70     90%   74 29.82 29.82     0
Aug 14 18:53 S 3 10 Mostly Cloudy BKN055 75 70     84%   76 29.83 29.82      
Aug 14 16:53 S 3 10 Cloudy FEW040 SCT055 OVC090 77 73     88%   79 29.84 29.84   0  
May 11 17:53 NW 13 10 Clear CLR 51 18     27%     29.93 29.94      
Jun 11 08:53   10 Clear CLR 72 59     64%   72 29.75 29.75      
Jun 11 07:53 SSW 10 10 Clear CLR 66 57     73%     29.79 29.78     0
Jun 10 05:53 W 7 10 Clear CLR 48 40     73% 45   29.81 29.81      
Jun 09 13:53 W 5 10 Light Rain OVC080 57 50     77%     29.52 29.52 0   0
Jun 08 19:53 SSW 10 10 Clear CLR 77 52     42%   76 29.79 29.78      
Jun 08 13:53 SW 11 10 Partly Cloudy SCT095 85 49     29%   83 29.83 29.83      
Jun 07 17:53 Calm 9 Mostly Clear FEW100 78 43     29%   77 29.81 29.82      
Jun 07 14:53 Calm 10 Mostly Cloudy BKN110 77 42     29%   76 29.82 29.82      
Jun 06 01:53 NNE 3 10 Clear CLR 43 41     93% 41   30.06 30.07